Home > Weather > Haldimand > Past weeks

Flag for Canada Weather for the Past 2 Weeks in Haldimand, Ontario, Canada

Now
19 °F

Light snow. Overcast.


Feels Like: 4 °F
Forecast: N/A
Wind: 20 mph from West

Location: Hamilton Airport

Current Time: Feb 10, 2016 at 4:06:16 PM

Latest Report: Feb 10, 2016 at 3:00 PM


Visibility: 6 mi

Pressure: 29.72 "Hg

Humidity: 79%

Dew point: 14 °F

Location of HaldimandLocation

Historic Weather in Haldimand — Graph

°F

Haldimand Temperature Yesterday

Maximum temperature yesterday: 34 °F (at 10:00 AM)
Minimum temperature yesterday: 28 °F (at 7:00 PM)
Average temperature yesterday: 32 °F

High & Low Weather Summary for the Past Weeks

 TemperatureHumidityPressure
High55 °F (Feb 3, 1:00 PM)100% (Jan 28, 8:00 PM)30.35 "Hg (Jan 28, 8:00 PM)
Low14 °F (Jan 30, 12:00 AM)45% (Feb 6, 2:00 PM)29.49 "Hg (Feb 9, 2:00 PM)
Average33 °F80%29.87 "Hg
* Reported Jan 26 3:00 PM — Feb 10 3:00 PM, Haldimand, Weather by CustomWeather, © 2016

Note: Actual official high and low records may vary slightly from our data, if they occured in-between our weather recording intervals... More about our weather records

Advertising

Haldimand Weather History for the Previous 24 Hours

 ConditionsComfort  
Time TempWeatherWind HumidityBarometerVisibility
3:00 PM
Wed, Feb 10
19 °FLight snow. Overcast.20 mph79%29.72 "Hg6 mi
2:00 PM21 °FLight snow. Mostly cloudy.15 mph86%29.69 "Hg1 mi
1:00 PM23 °FLight snow. Mostly cloudy.9 mph86%29.68 "Hg1 mi
12:50 PM23 °FLight snow. Mostly cloudy.16 mph86%29.68 "Hg1 mi
12:00 PM25 °FLight snow. More clouds than sun.17 mph80%29.68 "Hg1 mi
11:00 AM23 °FLight snow. Mostly cloudy.17 mph80%29.68 "Hg6 mi
10:00 AM23 °FLight snow. Cloudy.17 mph86%29.67 "Hg4 mi
9:00 AM23 °FLight snow. Mostly cloudy.15 mph86%29.66 "Hg2 mi
8:00 AM23 °FLight snow. Cloudy.15 mph86%29.64 "Hg1 mi
7:47 AM23 °FLight snow. Cloudy.15 mph86%29.64 "Hg1 mi
7:00 AM23 °FLight snow. Mostly cloudy.13 mph93%29.62 "Hg5 mi
6:00 AM25 °FLight snow. Mostly cloudy.14 mph86%29.60 "Hg3 mi
5:00 AM25 °FLight snow. Mostly cloudy.15 mph86%29.59 "Hg3 mi
4:00 AM27 °FLight snow. Mostly cloudy.12 mph86%29.57 "Hg6 mi
3:00 AM27 °FLight snow. Mostly cloudy.13 mph86%29.56 "Hg6 mi
2:00 AM27 °FLight snow. Overcast.14 mph86%29.54 "Hg6 mi
1:00 AM27 °FLight snow. Mostly cloudy.17 mph93%29.53 "Hg3 mi
12:00 AM28 °FLight snow. Overcast.16 mph86%29.52 "Hg15 mi
11:00 PM
Tue, Feb 9
30 °FLight snow. Mostly cloudy.14 mph86%29.50 "Hg6 mi
10:00 PM28 °FLight snow. Low clouds.12 mph93%29.51 "Hg5 mi
9:00 PM28 °FSnow flurries. Mostly cloudy.12 mph93%29.52 "Hg3 mi
8:00 PM28 °FSnow flurries. Mostly cloudy.15 mph86%29.54 "Hg12 mi
7:50 PM28 °FSnow flurries. Overcast.13 mph86%29.54 "Hg15 mi
7:00 PM28 °FMostly cloudy.14 mph86%29.54 "Hg15 mi
6:00 PM30 °FMostly cloudy.14 mph80%29.53 "Hg15 mi
5:00 PM30 °FMore clouds than sun.13 mph80%29.52 "Hg15 mi
4:00 PM32 °FPartly sunny.13 mph87%29.49 "Hg15 mi
Weather by CustomWeather, © 2016

See weather overviewHow to use our weather pages